Fort Leonard Wood, MO

9:15 AM CDT on May 26, 2017 (GMT -0500)
Waynesville Regional At Forney Field

Weather History for KTBN - January, 2014

Change the Weather History Date:

Saturday, January 11, 2014

  Actual Average Record
Temperature  
Mean Temperature 42 °F -  
Max Temperature 49 °F 39 °F 71 °F (2017)
Min Temperature 33 °F 26 °F 0 °F (1997)
Degree Days  
Heating Degree Days 24    
Moisture  
Dew Point 35 °F    
Average Humidity 87    
Maximum Humidity 100    
Minimum Humidity 51    
Precipitation  
Precipitation 0.00 in - - ()
Sea Level Pressure  
Sea Level Pressure 29.79 in    
Wind  
Wind Speed 7 mph (West)    
Max Wind Speed 13 mph    
Max Gust Speed 21 mph    
Visibility 10 miles    
Events      
Averages and records for this station are not official NWS values.
T = Trace of Precipitation, MM = Missing Value Source: NWS Daily Summary

Daily Weather History Graph

Daily Weather History Graph

Search for Another Location

Airport or City:

Trip Planner

Search our weather history database for the weather conditions in past years. The results will help you decide how hot, cold, wet, or windy it might be!

Date:

Astronomy

Jan. 11, 2014 Rise Set
Actual Time 7:23 AM CST 5:09 PM CST
Civil Twilight 6:54 AM CST 5:38 PM CST
Nautical Twilight 6:22 AM CST 6:10 PM CST
Astronomical Twilight 5:50 AM CST 6:42 PM CST
Moon 1:53 PM CST (1/11) 3:29 AM CST (1/11)
Length of Visible Light 10h 43m
Length of Day
9h 45m
Waxing Gibbous, 83% of the Moon is Illuminated
Jan 11
Waxing Gibbous
Jan 15
Full
Jan 23
Last Quarter
Jan 30
New
Feb 6
First Quarter

Hourly Weather History & Observations

Time (CST) Temp. Windchill Dew Point Humidity Pressure Visibility Wind Dir Wind Speed Gust Speed Precip Events Conditions
12:03 AM 39.2 °F 34.2 °F 39.2 °F 100% 29.62 in 10.0 mi Variable 6.9 mph - N/A   Mostly Cloudy
12:53 AM 37.4 °F 32.1 °F 37.4 °F 100% 29.62 in 10.0 mi West 6.9 mph - N/A   Scattered Clouds
12:58 AM 37.4 °F 32.1 °F 37.0 °F 99% 29.66 in 10.0 mi Variable 6.9 mph - N/A   Scattered Clouds
1:38 AM 35.6 °F 31.7 °F 35.6 °F 100% 29.63 in 10.0 mi West 4.6 mph - N/A   Mostly Cloudy
1:58 AM 36.0 °F 31.1 °F 36.0 °F 100% 29.67 in 10.0 mi Variable 5.8 mph - N/A   Overcast
2:58 AM 36.1 °F 28.7 °F 36.0 °F 99% 29.67 in 10.0 mi West 10.4 mph 16.1 mph N/A   Overcast
3:48 AM 37.4 °F 32.8 °F 35.6 °F 93% 29.65 in 10.0 mi West 5.8 mph - N/A   Overcast
3:58 AM 36.7 °F 30.5 °F 36.5 °F 99% 29.68 in 10.0 mi West 8.1 mph - N/A   Overcast
4:58 AM 36.3 °F 30.8 °F 36.1 °F 99% 29.70 in 10.0 mi West 6.9 mph - N/A   Overcast
5:58 AM 36.1 °F 29.9 °F 36.0 °F 99% 29.73 in 10.0 mi West 8.1 mph - N/A   Overcast
6:08 AM 35.6 °F 29.2 °F 35.6 °F 100% 29.71 in 10.0 mi West 8.1 mph 18.4 mph N/A   Overcast
6:58 AM 35.6 °F 28.0 °F 35.6 °F 100% 29.75 in 10.0 mi West 10.4 mph 17.3 mph N/A   Overcast
7:28 AM 35.6 °F 29.2 °F 35.6 °F 100% 29.73 in 10.0 mi West 8.1 mph - N/A   Overcast
7:58 AM 35.6 °F 30.7 °F 35.6 °F 100% 29.78 in 10.0 mi West 5.8 mph 18.4 mph N/A   Overcast
8:58 AM 35.8 °F 29.4 °F 35.6 °F 99% 29.81 in 10.0 mi West 8.1 mph - N/A   Overcast
9:18 AM 35.6 °F 29.2 °F 35.6 °F 100% 29.80 in 10.0 mi West 8.1 mph - N/A   Overcast
9:58 AM 37.6 °F 31.0 °F 36.0 °F 94% 29.84 in 10.0 mi West 9.2 mph - N/A   Mostly Cloudy
10:18 AM 37.4 °F 30.8 °F 35.6 °F 93% 29.83 in 10.0 mi West 9.2 mph - N/A   Scattered Clouds
10:58 AM 40.5 °F 35.8 °F 35.1 °F 81% 29.84 in 10.0 mi Variable 6.9 mph - N/A   Clear
11:58 AM 43.5 °F 37.9 °F 34.3 °F 70% 29.81 in 10.0 mi West 10.4 mph - N/A   Clear
12:58 PM 46.8 °F - 33.8 °F 61% 29.79 in 10.0 mi West 6.9 mph - N/A   Mostly Cloudy
1:58 PM 47.8 °F - 32.7 °F 56% 29.80 in 10.0 mi West 11.5 mph 18.4 mph N/A   Overcast
2:58 PM 49.3 °F - 31.6 °F 51% 29.80 in 10.0 mi WSW 12.7 mph 19.6 mph N/A   Clear
3:58 PM 48.9 °F - 34.7 °F 58% 29.83 in 10.0 mi West 12.7 mph 20.7 mph N/A   Partly Cloudy
4:58 PM 46.2 °F 42.2 °F 32.2 °F 58% 29.87 in 10.0 mi West 8.1 mph - N/A   Clear
5:58 PM 43.0 °F 38.8 °F 31.3 °F 63% 29.90 in 10.0 mi West 6.9 mph - N/A   Clear
6:58 PM 40.5 °F 38.4 °F 31.1 °F 69% 29.93 in 10.0 mi West 3.5 mph - N/A   Clear
7:58 PM 37.9 °F 33.5 °F 31.1 °F 76% 29.95 in 10.0 mi West 5.8 mph - N/A   Clear
8:58 PM 37.2 °F 32.6 °F 32.5 °F 83% 29.97 in 10.0 mi West 5.8 mph - N/A   Clear
9:58 PM 36.3 °F 31.6 °F 33.1 °F 88% 29.98 in 10.0 mi WSW 5.8 mph - N/A   Clear
10:58 PM 34.0 °F 28.8 °F 32.5 °F 94% 30.00 in 10.0 mi WSW 5.8 mph - N/A   Clear
11:58 PM 33.1 °F 28.7 °F 32.7 °F 99% 29.98 in 10.0 mi SW 4.6 mph - N/A   Clear